KE8KMM Weather Reports


Display with metric or nautical units.
time (UTC)temp
F
wind
direction
speed
MPH
gust
MPH
rain 1hr
in
rain 24hr
in
rain mn
in
humidity
%
barometer
mb
20260508095420 38 200 1.0 1.0 0.00 0.00 0.00 93 1012.4
20260508094916 39 194 1.0 2.0 0.00 0.00 0.00 93 1012.2
20260508094413 39 219 1.0 2.0 0.00 0.00 0.00 92 1012.6
20260508093910 39 256 1.0 2.0 0.00 0.00 0.00 92 1012.5
20260508093408 39 228 2.0 2.0 0.00 0.00 0.00 91 1012.8
20260508092905 40 164 0.0 1.0 0.00 0.00 0.00 90 1012.6
20260508092403 40 111 1.0 2.0 0.00 0.00 0.00 90 1012.7
20260508091901 41 183 0.0 1.0 0.00 0.00 0.00 89 1012.9
20260508091357 41 172 0.0 1.0 0.00 0.00 0.00 88 1012.7
20260508090855 42 222 1.0 2.0 0.00 0.00 0.00 87 1012.9
20260508090354 42 211 1.0 3.0 0.00 0.00 0.00 86 1012.6
20260508085849 43 250 3.0 5.0 0.00 0.00 0.00 84 1012.5
20260508085346 43 255 3.0 3.0 0.00 0.00 0.00 85 1012.6
20260508084842 43 176 1.0 2.0 0.00 0.00 0.00 84 1012.5
20260508084339 43 277 3.0 3.0 0.00 0.00 0.00 86 1012.5
20260508083837 43 208 2.0 2.0 0.00 0.00 0.00 87 1012.7
20260508083335 42 93 0.0 1.0 0.00 0.00 0.00 89 1012.7
20260508082834 42 114 0.0 0.0 0.00 0.00 0.00 90 1012.6
20260508082332 42 143 0.0 0.0 0.00 0.00 0.00 90 1012.7
20260508081829 42 149 0.0 0.0 0.00 0.00 0.00 90 1012.8
20260508081326 42 153 0.0 1.0 0.00 0.00 0.00 90 1012.6
20260508080823 42 177 0.0 1.0 0.00 0.00 0.00 90 1012.8
20260508080321 42 220 0.0 0.0 0.00 0.00 0.00 89 1012.8
20260508075817 42 146 0.0 0.0 0.00 0.00 0.00 89 1012.6
20260508075314 42 95 0.0 1.0 0.00 0.00 0.00 89 1012.7
20260508074812 42 139 0.0 0.0 0.00 0.00 0.00 89 1013.0
20260508074309 42 107 0.0 0.0 0.00 0.00 0.00 89 1012.9
20260508073806 42 9 0.0 1.0 0.00 0.00 0.00 90 1013.2
20260508073304 41 114 0.0 0.0 0.00 0.00 0.00 90 1013.1
20260508072759 41 122 0.0 0.0 0.00 0.00 0.00 89 1013.2
20260508072257 41 166 0.0 1.0 0.00 0.00 0.00 90 1013.2
20260508071754 41 163 0.0 1.0 0.00 0.00 0.00 89 1013.3
20260508071252 41 159 0.0 1.0 0.00 0.00 0.00 89 1013.1
20260508070749 41 70 1.0 2.0 0.00 0.00 0.00 90 1013.4
20260508070248 40 152 2.0 2.0 0.00 0.00 0.00 90 1013.4
20260508065744 40 199 1.0 1.0 0.00 0.00 0.00 90 1013.2
20260508065242 40 206 1.0 2.0 0.00 0.00 0.00 90 1013.3
20260508064740 40 233 1.0 2.0 0.00 0.00 0.00 90 1013.2
20260508064238 40 203 1.0 2.0 0.00 0.00 0.00 90 1013.0
20260508063735 39 203 1.0 1.0 0.00 0.00 0.00 90 1012.8
20260508063233 39 226 1.0 2.0 0.00 0.00 0.00 91 1012.9
20260508062730 39 242 2.0 2.0 0.00 0.00 0.00 91 1012.6
20260508062227 39 182 1.0 1.0 0.00 0.00 0.00 90 1012.9
20260508061724 39 207 0.0 0.0 0.00 0.00 0.00 90 1012.7
20260508061221 39 137 0.0 0.0 0.00 0.00 0.00 90 1012.6
20260508060718 39 129 0.0 1.0 0.00 0.00 0.00 91 1012.8
20260508060216 39 265 1.0 2.0 0.00 0.00 0.00 91 1012.8
20260508055711 39 260 2.0 2.0 0.00 0.00 0.00 91 1012.9
20260508055208 38 161 1.0 2.0 0.00 0.00 0.00 92 1012.8
20260508054704 38 244 2.0 2.0 0.00 0.00 0.00 92 1012.9
20260508054202 38 172 1.0 1.0 0.00 0.00 0.00 92 1013.1
20260508053659 38 216 2.0 2.0 0.00 0.00 0.00 92 1013.0
20260508053157 37 263 2.0 2.0 0.00 0.00 0.00 92 1013.2
20260508052654 37 191 1.0 2.0 0.00 0.00 0.00 92 1013.1
20260508052151 38 185 1.0 1.0 0.00 0.00 0.00 92 1013.0
20260508051647 38 136 0.0 1.0 0.00 0.00 0.00 92 1013.0
20260508051142 37 246 1.0 2.0 0.00 0.00 0.00 92 1013.2
20260508050638 37 212 1.0 1.0 0.00 0.00 0.00 91 1013.4
20260508050137 38 192 1.0 1.0 0.00 0.00 0.00 91 1013.3
20260508045632 38 171 0.0 1.0 0.00 0.00 0.00 91 1013.3
20260508045130 38 149 1.0 2.0 0.00 0.00 0.00 91 1013.3
20260508044627 38 210 1.0 2.0 0.00 0.00 0.00 91 1013.2
20260508044123 38 222 1.0 2.0 0.00 0.00 0.00 90 1013.2
20260508043620 38 231 1.0 2.0 0.00 0.00 0.00 90 1013.3
20260508043118 39 196 1.0 1.0 0.00 0.00 0.00 90 1013.2
20260508042614 39 216 1.0 1.0 0.00 0.00 0.00 90 1013.4
20260508042111 39 203 1.0 2.0 0.00 0.00 0.00 90 1013.2
20260508041607 39 215 1.0 2.0 0.00 0.00 0.00 89 1013.3
20260508041104 39 216 2.0 2.0 0.00 0.00 0.00 89 1013.2
20260508040601 39 234 1.0 1.0 0.00 0.00 0.00 90 1012.9
20260508040059 39 221 2.0 2.0 0.00 0.00 0.00 89 1013.0
20260508035555 39 253 2.0 3.0 0.00 0.00 0.00 89 1012.9
20260508035053 39 264 2.0 2.0 0.00 0.00 0.00 89 1012.8
20260508034549 39 173 1.0 2.0 0.00 0.00 0.00 89 1012.8
20260508034046 39 254 2.0 2.0 0.00 0.00 0.00 89 1012.9
20260508033544 39 243 2.0 2.0 0.00 0.00 0.00 89 1013.0
20260508033042 39 237 2.0 2.0 0.00 0.00 0.00 88 1013.1
20260508032538 39 214 2.0 2.0 0.00 0.00 0.00 88 1012.9
20260508032036 40 198 2.0 2.0 0.00 0.00 0.00 88 1012.9
20260508031533 39 234 1.0 2.0 0.00 0.00 0.00 88 1012.6
20260508031029 40 232 2.0 2.0 0.00 0.00 0.00 88 1012.9
20260508030526 40 258 2.0 2.0 0.00 0.00 0.00 88 1012.7
20260508030024 40 248 2.0 3.0 0.00 0.00 0.00 88 1012.9
20260508025519 40 257 2.0 2.0 0.00 0.00 0.00 87 1012.8
20260508025016 40 236 3.0 3.0 0.00 0.00 0.00 87 1013.0
20260508024512 40 239 3.0 3.0 0.00 0.00 0.00 87 1013.0
20260508024009 41 252 2.0 2.0 0.00 0.00 0.00 86 1012.9
20260508023506 41 230 2.0 2.0 0.00 0.00 0.00 86 1012.7
20260508023004 41 211 1.0 2.0 0.00 0.00 0.00 86 1012.9
20260508022459 41 216 1.0 2.0 0.00 0.00 0.00 85 1012.7
20260508021956 42 223 1.0 2.0 0.00 0.00 0.00 85 1012.8
20260508021452 42 240 2.0 2.0 0.00 0.00 0.00 84 1012.8
20260508020948 42 258 2.0 3.0 0.00 0.00 0.00 84 1012.8
20260508020446 42 203 1.0 2.0 0.00 0.00 0.00 83 1012.8
20260508015943 42 221 1.0 2.0 0.00 0.00 0.00 83 1012.8
20260508015441 42 210 2.0 2.0 0.00 0.00 0.00 83 1012.8
20260508014937 43 262 2.0 2.0 0.00 0.00 0.00 82 1012.7
20260508014434 43 176 1.0 2.0 0.00 0.00 0.00 82 1012.8
20260508013930 44 205 2.0 2.0 0.00 0.00 0.00 80 1012.6
20260508013426 44 209 1.0 2.0 0.00 0.00 0.00 80 1012.5
20260508012924 44 268 2.0 2.0 0.00 0.00 0.00 79 1012.4
20260508012420 45 137 1.0 2.0 0.00 0.00 0.00 79 1012.2
20260508011918 45 188 2.0 2.0 0.00 0.00 0.00 79 1012.5
20260508011416 46 243 2.0 2.0 0.00 0.00 0.00 78 1012.4
20260508010913 46 263 3.0 3.0 0.00 0.00 0.00 77 1012.3
20260508010410 46 212 2.0 2.0 0.00 0.00 0.00 77 1012.2
20260508005907 46 255 2.0 2.0 0.00 0.00 0.00 76 1012.2
20260508005404 47 249 1.0 2.0 0.00 0.00 0.00 76 1012.1
20260508004900 47 246 1.0 2.0 0.00 0.00 0.00 74 1012.0
20260508004356 48 267 2.0 2.0 0.00 0.00 0.00 73 1012.0
20260508003853 48 201 1.0 2.0 0.00 0.00 0.00 71 1011.9
20260508003350 48 220 1.0 1.0 0.00 0.00 0.00 70 1011.9
20260508002848 49 190 1.0 1.0 0.00 0.00 0.00 71 1011.8
20260508002344 50 193 1.0 1.0 0.00 0.00 0.00 70 1011.8
20260508001840 50 205 0.0 0.0 0.00 0.00 0.00 68 1012.1
20260508001336 51 152 0.0 0.0 0.00 0.00 0.00 64 1011.7
20260508000832 52 173 0.0 0.0 0.00 0.00 0.00 60 1011.7
20260508000329 53 121 0.0 1.0 0.00 0.00 0.00 59 1011.8
20260507235826 53 262 3.0 5.0 0.00 0.00 0.00 50 1011.7
20260507235323 54 293 2.0 2.0 0.00 0.00 0.00 53 1011.4
20260507234820 55 225 2.0 3.0 0.00 0.00 0.00 56 1011.7
20260507234317 55 200 1.0 2.0 0.00 0.00 0.00 53 1011.4
20260507233813 56 112 0.0 3.0 0.00 0.00 0.00 55 1011.4
20260507233311 57 143 0.0 0.0 0.00 0.00 0.00 52 1011.3
20260507232809 57 109 0.0 0.0 0.00 0.00 0.00 52 1011.4
20260507232306 58 149 0.0 0.0 0.00 0.00 0.00 49 1011.2
20260507231802 58 89 2.0 5.0 0.00 0.00 0.00 45 1011.2
20260507231259 58 196 1.0 6.0 0.00 0.00 0.00 48 1011.3
20260507230755 57 218 2.0 3.0 0.00 0.00 0.00 45 1011.1
20260507230253 57 191 5.0 6.0 0.00 0.00 0.00 46 1011.4
20260507225752 58 210 3.0 7.0 0.00 0.00 0.00 46 1011.4
20260507225249 59 233 4.0 6.0 0.00 0.00 0.00 48 1011.6
20260507224744 58 255 2.0 5.0 0.00 0.00 0.00 48 1011.3
20260507224241 58 228 6.0 9.0 0.00 0.00 0.00 47 1011.4
20260507223738 59 30 1.0 7.0 0.00 0.00 0.00 44 1011.7
20260507223234 58 165 4.0 8.0 0.00 0.00 0.00 44 1011.8
20260507222731 59 237 8.0 10.0 0.00 0.00 0.00 44 1011.4
20260507222227 59 286 4.0 9.0 0.00 0.00 0.00 45 1011.6
20260507221724 59 315 1.0 7.0 0.00 0.00 0.00 45 1011.6
20260507221220 59 218 5.0 8.0 0.00 0.00 0.00 45 1011.2
20260507220717 58 269 3.0 8.0 0.00 0.00 0.00 47 1011.4
20260507220216 58 144 4.0 9.0 0.00 0.00 0.00 47 1011.3
20260507215712 60 252 3.0 8.0 0.00 0.00 0.00 45 1011.4
20260507215209 60 215 4.0 8.0 0.00 0.00 0.00 46 1011.3
20260507214706 58 221 5.0 7.0 0.00 0.00 0.00 47 1011.1
20260507214203 60 285 2.0 8.0 0.00 0.00 0.00 47 1011.1
20260507213658 60 223 3.0 5.0 0.00 0.00 0.00 51 1011.1
20260507213156 60 318 8.0 11.0 0.00 0.00 0.00 45 1011.0
20260507212652 60 201 6.0 10.0 0.00 0.00 0.00 50 1011.1
20260507212149 61 34 3.0 10.0 0.00 0.00 0.00 48 1010.7
20260507211646 60 239 2.0 7.0 0.00 0.00 0.00 49 1010.7
20260507211141 60 250 7.0 11.0 0.00 0.00 0.00 48 1010.6
20260507210639 59 197 4.0 8.0 0.00 0.00 0.00 50 1010.8
20260507210135 58 236 4.0 9.0 0.00 0.00 0.00 49 1010.4
20260507205632 58 138 6.0 14.0 0.00 0.00 0.00 50 1010.6
20260507205128 58 259 2.0 8.0 0.00 0.00 0.00 50 1010.5
20260507204625 58 280 7.0 11.0 0.00 0.00 0.00 49 1010.3
20260507204122 59 232 8.0 10.0 0.00 0.00 0.00 49 1010.7
20260507203620 59 98 2.0 5.0 0.00 0.00 0.00 48 1010.4
20260507203118 59 293 6.0 8.0 0.00 0.00 0.00 50 1010.5
20260507202613 59 235 7.0 9.0 0.00 0.00 0.00 47 1010.4
20260507202110 60 10 1.0 5.0 0.00 0.00 0.00 46 1010.3
20260507201605 60 65 1.0 5.0 0.00 0.00 0.00 46 1010.5
20260507201102 62 202 5.0 9.0 0.00 0.00 0.00 46 1010.4
20260507200557 61 227 4.0 10.0 0.00 0.00 0.00 48 1010.4
20260507200054 60 302 3.0 11.0 0.00 0.00 0.00 43 1010.5
20260507195551 60 234 8.0 17.0 0.00 0.00 0.00 46 1010.6
20260507195048 61 292 4.0 13.0 0.00 0.00 0.00 45 1010.7
20260507194544 61 204 1.0 10.0 0.00 0.00 0.00 46 1010.7
20260507194040 60 227 5.0 13.0 0.00 0.00 0.00 45 1010.7
20260507193538 61 213 1.0 9.0 0.00 0.00 0.00 44 1010.7
20260507193035 60 210 1.0 8.0 0.00 0.00 0.00 42 1010.8
20260507192531 61 203 3.0 16.0 0.00 0.00 0.00 46 1010.6
20260507192028 60 15 2.0 10.0 0.00 0.00 0.00 50 1010.6
20260507191523 62 274 9.0 16.0 0.00 0.00 0.00 48 1010.8
20260507191020 60 187 4.0 9.0 0.00 0.00 0.00 48 1010.7
20260507190518 62 272 9.0 11.0 0.00 0.00 0.00 44 1010.9
20260507190016 61 263 4.0 9.0 0.00 0.00 0.00 48 1010.6
20260507185514 61 224 5.0 6.0 0.00 0.00 0.00 44 1010.8
20260507185010 61 222 2.0 9.0 0.00 0.00 0.00 48 1010.9
20260507184509 60 197 2.0 8.0 0.00 0.00 0.00 46 1010.8
20260507184006 59 274 2.0 6.0 0.00 0.00 0.00 46 1010.7
20260507183502 60 207 7.0 8.0 0.00 0.00 0.00 46 1011.0
20260507182959 61 214 6.0 8.0 0.00 0.00 0.00 45 1011.0
20260507182455 60 275 2.0 8.0 0.00 0.00 0.00 45 1010.9
20260507181951 60 234 5.0 10.0 0.00 0.00 0.00 45 1010.8
20260507181448 59 200 6.0 14.0 0.00 0.00 0.00 47 1010.9
20260507180944 60 201 6.0 10.0 0.00 0.00 0.00 46 1010.7
20260507180441 61 266 6.0 11.0 0.00 0.00 0.00 52 1011.1
20260507175937 60 42 2.0 7.0 0.00 0.00 0.00 50 1011.0
20260507175434 60 199 6.0 9.0 0.00 0.00 0.00 51 1011.1
20260507174932 59 211 7.0 10.0 0.00 0.00 0.00 47 1011.0
20260507174429 60 261 4.0 7.0 0.00 0.00 0.00 46 1011.0
20260507173926 58 212 3.0 8.0 0.00 0.00 0.00 51 1011.1
20260507173423 59 257 7.0 10.0 0.00 0.00 0.00 47 1011.1
20260507172920 60 331 1.0 7.0 0.00 0.00 0.00 44 1011.3
20260507172417 58 15 2.0 6.0 0.00 0.00 0.00 47 1011.3
20260507171913 58 226 4.0 8.0 0.00 0.00 0.00 53 1011.4
20260507171409 59 338 8.0 10.0 0.00 0.00 0.00 48 1011.4
20260507170907 58 218 8.0 13.0 0.00 0.00 0.00 44 1011.4
20260507170403 58 227 7.0 14.0 0.00 0.00 0.00 49 1011.4
20260507165859 58 299 3.0 8.0 0.00 0.00 0.00 49 1011.6
20260507165355 59 211 7.0 8.0 0.00 0.00 0.00 49 1011.6
20260507164851 58 107 8.0 10.0 0.00 0.00 0.00 47 1011.7
20260507164348 58 251 3.0 8.0 0.00 0.00 0.00 48 1011.4
20260507163846 58 213 5.0 10.0 0.00 0.00 0.00 48 1011.4
20260507163343 58 43 3.0 9.0 0.00 0.00 0.00 50 1011.4
20260507162839 57 223 3.0 9.0 0.00 0.00 0.00 47 1011.7
20260507162335 58 309 3.0 7.0 0.00 0.00 0.00 47 1011.7
20260507161832 58 179 5.0 10.0 0.00 0.00 0.00 47 1011.8
20260507161329 57 218 4.0 11.0 0.00 0.00 0.00 47 1011.7
20260507160825 59 223 2.0 7.0 0.00 0.00 0.00 47 1011.4
20260507160321 58 254 7.0 9.0 0.00 0.00 0.00 49 1011.7
20260507155818 58 279 3.0 9.0 0.00 0.00 0.00 49 1011.4
20260507155314 58 165 2.0 9.0 0.00 0.00 0.00 47 1011.7
20260507154810 58 214 2.0 9.0 0.00 0.00 0.00 49 1011.7
20260507154308 58 91 1.0 5.0 0.00 0.00 0.00 47 1011.6
20260507153804 58 213 3.0 7.0 0.00 0.00 0.00 51 1011.7
20260507153301 58 208 7.0 9.0 0.00 0.00 0.00 54 1011.7
20260507152757 57 211 10.0 13.0 0.00 0.00 0.00 49 1011.6
20260507152254 57 128 1.0 10.0 0.00 0.00 0.00 54 1011.6
20260507151749 57 230 2.0 6.0 0.00 0.00 0.00 49 1011.9
20260507151246 56 191 4.0 11.0 0.00 0.00 0.00 48 1011.7
20260507150743 56 274 6.0 10.0 0.00 0.00 0.00 55 1011.8
20260507150240 56 255 3.0 5.0 0.00 0.00 0.00 52 1011.8
20260507145736 56 195 5.0 9.0 0.00 0.00 0.00 52 1012.0
20260507145232 56 281 3.0 5.0 0.00 0.00 0.00 51 1012.1
20260507144730 56 86 5.0 10.0 0.00 0.00 0.00 51 1012.3
20260507144227 55 155 0.0 7.0 0.00 0.00 0.00 53 1012.1
20260507143723 55 293 5.0 10.0 0.00 0.00 0.00 51 1012.2
20260507143221 56 55 4.0 6.0 0.00 0.00 0.00 50 1012.1
20260507142717 55 193 5.0 7.0 0.00 0.00 0.00 53 1012.1
20260507142213 55 209 3.0 10.0 0.00 0.00 0.00 57 1012.4
20260507141709 55 248 2.0 7.0 0.00 0.00 0.00 54 1012.2
20260507141207 56 121 1.0 6.0 0.00 0.00 0.00 58 1012.4
20260507140703 55 222 4.0 6.0 0.00 0.00 0.00 59 1012.4
20260507140201 55 219 1.0 3.0 0.00 0.00 0.00 63 1012.6
20260507135657 53 189 2.0 5.0 0.00 0.00 0.00 60 1012.8
20260507135155 54 234 5.0 7.0 0.00 0.00 0.00 65 1012.5
20260507134651 55 212 4.0 6.0 0.00 0.00 0.00 65 1012.9
20260507134147 54 122 0.0 1.0 0.00 0.00 0.00 67 1012.8
20260507133643 52 217 2.0 3.0 0.00 0.00 0.00 66 1012.9
20260507133141 54 161 3.0 3.0 0.00 0.00 0.00 64 1012.7
20260507132638 52 109 0.0 6.0 0.00 0.00 0.00 70 1012.9
20260507132134 52 91 1.0 2.0 0.00 0.00 0.00 74 1013.0
20260507131631 51 113 0.0 1.0 0.00 0.00 0.00 78 1013.1
20260507131129 51 126 1.0 2.0 0.00 0.00 0.00 80 1013.1
20260507130625 51 116 0.0 1.0 0.00 0.00 0.00 79 1012.9
20260507130123 50 82 1.0 2.0 0.00 0.00 0.00 80 1012.9
20260507125621 49 69 0.0 1.0 0.00 0.00 0.00 81 1013.0
20260507125119 48 48 1.0 1.0 0.00 0.00 0.00 84 1013.0
20260507124614 48 65 1.0 2.0 0.00 0.00 0.00 85 1013.0
20260507124113 47 100 1.0 1.0 0.00 0.00 0.00 86 1012.9
20260507123611 46 125 0.0 2.0 0.00 0.00 0.00 87 1012.8
20260507123107 45 103 0.0 1.0 0.00 0.00 0.00 90 1012.9
20260507122602 44 100 1.0 1.0 0.00 0.00 0.00 93 1013.0
20260507122058 44 114 0.0 2.0 0.00 0.00 0.00 95 1012.9
20260507121554 43 121 0.0 1.0 0.00 0.00 0.00 96 1013.0
20260507121051 42 84 0.0 0.0 0.00 0.00 0.00 96 1013.0
20260507120547 41 113 1.0 1.0 0.00 0.00 0.00 96 1013.1
20260507120044 40 92 2.0 3.0 0.00 0.00 0.00 96 1013.0
20260507115540 39 182 0.0 1.0 0.00 0.00 0.00 96 1013.1
20260507115036 39 120 0.0 1.0 0.00 0.00 0.00 96 1013.0
20260507114532 39 100 0.0 1.0 0.00 0.00 0.00 96 1012.9
20260507114029 39 116 0.0 0.0 0.00 0.00 0.00 96 1013.0
20260507113526 37 129 0.0 0.0 0.00 0.00 0.00 96 1012.9
20260507113024 36 162 0.0 0.0 0.00 0.00 0.00 95 1012.9
20260507112521 36 160 0.0 0.0 0.00 0.00 0.00 95 1013.0
20260507112017 35 117 0.0 0.0 0.00 0.00 0.00 95 1012.8
20260507111515 35 145 0.0 1.0 0.00 0.00 0.00 95 1012.9
20260507111011 35 177 0.0 1.0 0.00 0.00 0.00 95 1012.8
20260507110508 35 190 1.0 1.0 0.00 0.00 0.00 95 1012.8
20260507110005 35 207 1.0 1.0 0.00 0.00 0.00 95 1012.7
20260507105501 35 143 0.0 1.0 0.00 0.00 0.00 95 1012.7
20260507104957 34 244 1.0 1.0 0.00 0.00 0.00 95 1012.5
20260507104455 34 238 2.0 2.0 0.00 0.00 0.00 95 1012.6
20260507103950 34 233 1.0 2.0 0.00 0.00 0.00 95 1012.6
20260507103447 35 215 1.0 2.0 0.00 0.00 0.00 95 1012.6
20260507102943 35 201 1.0 2.0 0.00 0.00 0.00 95 1012.5
20260507102440 35 225 1.0 2.0 0.00 0.00 0.00 95 1012.3
20260507101937 35 185 1.0 2.0 0.00 0.00 0.00 95 1012.5
20260507101432 35 213 1.0 2.0 0.00 0.00 0.00 95 1012.3
20260507100929 35 234 1.0 2.0 0.00 0.00 0.00 95 1012.4
20260507100426 35 207 1.0 2.0 0.00 0.00 0.00 95 1012.4
20260507095924 35 223 1.0 1.0 0.00 0.00 0.00 95 1012.3